This is the latest recevied weather packets stored in our database for station/object IW0REF-9. If no packets are shown the sender has not sent any weather packets the latest 10 day(s).
| Time | Temp. | Humidity | Pressure | Rain* | Wind** | Luminosity | Snow |
|---|---|---|---|---|---|---|---|
| 1777563003 | 29.44° C | 16% | 1000.2 hPa | - | - | - | - |
| 1777562102 | 30° C | 16% | 1000.2 hPa | - | - | - | - |
| 1777561201 | 30° C | 17% | 1000.3 hPa | - | - | - | - |
| 1777560301 | 28.33° C | 18% | 1000.2 hPa | - | - | - | - |
| 1777559400 | 30.56° C | 17% | 1000.2 hPa | - | - | - | - |
| 1777558500 | 28.89° C | 19% | 1000.2 hPa | - | - | - | - |
| 1777557599 | 29.44° C | 19% | 1000.3 hPa | - | - | - | - |
| 1777556698 | 27.22° C | 21% | 1000.5 hPa | - | - | - | - |
| 1777555798 | 25° C | 21% | 1000.5 hPa | - | - | - | - |
| 1777554897 | 26.11° C | 21% | 1000.7 hPa | - | - | - | - |
| 1777553997 | 26.67° C | 23% | 1000.7 hPa | - | - | - | - |
| 1777553096 | 27.22° C | 21% | 1001 hPa | - | - | - | - |
| 1777552196 | 26.11° C | 23% | 1000.9 hPa | - | - | - | - |
| 1777551295 | 25° C | 24% | 1001.2 hPa | - | - | - | - |
| 1777550394 | 25° C | 23% | 1001.1 hPa | - | - | - | - |
| 1777549493 | 23.89° C | 24% | 1001.1 hPa | - | - | - | - |
| 1777548592 | 23.89° C | 25% | 1001.1 hPa | - | - | - | - |
| 1777547691 | 23.33° C | 25% | 1001.2 hPa | - | - | - | - |
| 1777546791 | 24.44° C | 24% | 1001.2 hPa | - | - | - | - |
| 1777545891 | 23.89° C | 25% | 1001.2 hPa | - | - | - | - |
| 1777544990 | 23.89° C | 25% | 1001.3 hPa | - | - | - | - |
| 1777544090 | 22.78° C | 26% | 1001.3 hPa | - | - | - | - |
| 1777543190 | 22.78° C | 26% | 1001.4 hPa | - | - | - | - |
| 1777542289 | 22.78° C | 26% | 1001.5 hPa | - | - | - | - |
| 1777541388 | 22.22° C | 27% | 1001.4 hPa | - | - | - | - |
* Rain since midnight (hover to see other rain measurements)
** Current wind speed in m/s (hover to see current wind gust speed)